sat.trackr.live / text

‹ back to catalog

STARLINK-5098

NORAD 54013 · 2022-125BB

PAYLOAD ACTIVE UNKNOWN

§ Identity

Operator
Country
US
Launch date
2022-10-05
Launch site
AFWTR
Launch vehicle
Mass (kg)
RCS (m²)

Purposes: comms

External: N2YO · Heavens-Above · Gunter

§ Orbital elements

Epoch: 2026-05-25T04:44:31.616160Z

Period
95.44 min
Inclination
53.2137°
Eccentricity
0.0000985
Mean motion
15.08841463 rev/d
Perigee alt
539.1 km
Apogee alt
540.4 km
Semi-major
6,917.9 km
B*
-2.5139e-5
RAAN
220.6195°
Arg perigee
86.6363°
Mean anomaly
273.4742°
Rev number
20,115

§ Raw data

STARLINK-50981 54013U 22125BB  26145.19758815 -.00000688  00000+0 -25139-4 0  99942 54013  53.2137 220.6195 0000985  86.6363 273.4742 15.08841463201153

JSON: /api/v1/satellites/54013 · /tle

For live sub-satellite position, see the globe view (requires WebGL).

§ Visibility from observer

Set your observer location to see the next 7 days of passes ≥ 10°. The values pass through the URL so the page stays shareable.

No JS? Fill the form by hand. The geolocation button needs JavaScript.